Regional Weather Roundup
Issued by NWS

Home | Current Version | Previous Version | Graphics & Text | Print | Product List | Glossary On
Versions: 1 2 3 4 5 6 7 8 9 10 11 12 13 14 15 16 17 18 19 20 21 22 23 24 25 26 27 28 29 30 31 32 33 34 35 36 37 38 39 40 41 42 43 44 45 46 47 48 49 50
169
ASUS43 KFSD 261502
RWRSD

WEATHER ROUNDUP FOR SOUTH DAKOTA
NATIONAL WEATHER SERVICE SIOUX FALLS SD
1000 AM CDT TUE JUL 26 2016

NOTE: "FAIR" INDICATES FEW OR NO CLOUDS BELOW 12,000 FEET WITH NO
SIGNIFICANT WEATHER AND/OR OBSTRUCTIONS TO VISIBILITY.


SDZ001>005-009-010-012>017-261600-
NORTHWEST AND NORTH CENTRAL SOUTH DAKOTA

CITY           SKY/WX    TMP DP  RH WIND       PRES   REMARKS
BUFFALO          N/A     65  62  90 E15       29.95F
FAITH            N/A     73  52  47 NW15G26   30.03F
MOBRIDGE       MOSUNNY   81  66  60 SE12      29.94S
$$

SDZ012>016-024>037-041>051-057-063-072>074-261600-
SOUTHWEST AND SOUTH CENTRAL SOUTH DAKOTA

CITY           SKY/WX    TMP DP  RH WIND       PRES   REMARKS
RAPID CTY ARPT CLOUDY    69  57  65 MISG      30.06R
PIERRE         SUNNY     85  66  53 SW12      29.98R
CUSTER         CLOUDY    63  53  70 E12       30.18F
PHILIP         CLOUDY    80  65  59 N12       30.03S
PINE RIDGE     PTSUNNY   73  65  75 NW12      30.09R
WINNER         FAIR      84  63  49 SW18G24   30.02S
$$

SDZ004>011-016>023-039-040-261600-
NORTHEAST SOUTH DAKOTA

CITY           SKY/WX    TMP DP  RH WIND       PRES   REMARKS
ABERDEEN       CLOUDY    68  64  87 S6        30.01F
WATERTOWN      SUNNY     79  64  60 SW12      30.06R
BROOKINGS      SUNNY     77  67  71 SW9       30.07R HAZE
SISSETON         N/A     78  65  63 W15       29.97R
$$

SDZ017-020-022-023-036>040-048>070-261600-
SOUTHEAST SOUTH DAKOTA

CITY           SKY/WX    TMP DP  RH WIND       PRES   REMARKS
SIOUX FALLS    MOSUNNY   78  65  63 SW13      30.07R
HURON          SUNNY     80  64  58 S10       30.02S
CHAMBERLAIN    SUNNY     83  69  60 SW8       30.02S
MITCHELL       SUNNY     80  65  59 S8        30.05R
YANKTON        SUNNY     79  66  65 S9        30.05R
$$

ABBREVIATIONS USED IN REMARKS
   TC - TEMPERATURE IN CELSIUS
  WCI - WIND CHILL INDEX
   HX - HEAT INDEX
  VSB - VISIBILITY





USA.gov is the U.S. government's official web portal to all federal, state and local government web resources and services.